| time (UTC) | temp F | wind direction | speed MPH | gust MPH | rain 1hr in | rain 24hr in | rain mn in | humidity % | barometer mb |
| 20260506221731 | 53 | 299 | 5.0 | 7.0 | 0.00 | 0.12 | 0.12 | 57 | 1012.6 |
| 20260506221228 | 53 | 312 | 5.0 | 7.0 | 0.00 | 0.12 | 0.12 | 57 | 1012.3 |
| 20260506220725 | 53 | 283 | 6.0 | 10.0 | 0.00 | 0.12 | 0.12 | 56 | 1012.5 |
| 20260506220220 | 53 | 276 | 8.0 | 9.0 | 0.00 | 0.12 | 0.12 | 56 | 1012.2 |
| 20260506215717 | 53 | 307 | 6.0 | 8.0 | 0.00 | 0.12 | 0.12 | 54 | 1012.2 |
| 20260506215212 | 53 | 302 | 7.0 | 8.0 | 0.00 | 0.12 | 0.12 | 53 | 1012.4 |
| 20260506214709 | 53 | 291 | 7.0 | 9.0 | 0.00 | 0.12 | 0.12 | 53 | 1012.4 |
| 20260506214207 | 53 | 283 | 6.0 | 7.0 | 0.00 | 0.12 | 0.12 | 54 | 1012.4 |
| 20260506213705 | 53 | 301 | 6.0 | 9.0 | 0.00 | 0.12 | 0.12 | 57 | 1012.4 |
| 20260506213202 | 53 | 310 | 6.0 | 8.0 | 0.00 | 0.12 | 0.12 | 55 | 1012.3 |
| 20260506212659 | 53 | 329 | 6.0 | 10.0 | 0.00 | 0.12 | 0.12 | 55 | 1012.1 |
| 20260506212154 | 53 | 294 | 8.0 | 11.0 | 0.00 | 0.12 | 0.12 | 53 | 1011.9 |
| 20260506211650 | 53 | 342 | 8.0 | 10.0 | 0.00 | 0.12 | 0.12 | 54 | 1012.0 |
| 20260506211146 | 53 | 302 | 6.0 | 8.0 | 0.00 | 0.12 | 0.12 | 54 | 1012.3 |
| 20260506210643 | 53 | 318 | 7.0 | 9.0 | 0.00 | 0.12 | 0.12 | 52 | 1012.0 |
| 20260506210140 | 53 | 278 | 7.0 | 10.0 | 0.00 | 0.12 | 0.12 | 52 | 1011.8 |
| 20260506205638 | 53 | 315 | 6.0 | 8.0 | 0.00 | 0.12 | 0.12 | 53 | 1011.9 |
| 20260506205132 | 53 | 307 | 6.0 | 8.0 | 0.00 | 0.12 | 0.12 | 53 | 1011.9 |
| 20260506204630 | 53 | 291 | 7.0 | 9.0 | 0.00 | 0.12 | 0.12 | 51 | 1012.0 |
| 20260506204127 | 53 | 304 | 6.0 | 9.0 | 0.00 | 0.12 | 0.12 | 52 | 1012.1 |
| 20260506203625 | 54 | 316 | 8.0 | 11.0 | 0.00 | 0.12 | 0.12 | 51 | 1012.1 |
| 20260506203121 | 53 | 301 | 7.0 | 8.0 | 0.00 | 0.12 | 0.12 | 53 | 1012.0 |
| 20260506202619 | 53 | 300 | 8.0 | 9.0 | 0.00 | 0.12 | 0.12 | 52 | 1012.1 |
| 20260506202115 | 54 | 291 | 9.0 | 10.0 | 0.00 | 0.12 | 0.12 | 51 | 1011.9 |
| 20260506201613 | 54 | 315 | 10.0 | 13.0 | 0.00 | 0.12 | 0.12 | 52 | 1012.1 |
| 20260506201109 | 54 | 325 | 8.0 | 10.0 | 0.00 | 0.12 | 0.12 | 50 | 1012.1 |
| 20260506200606 | 54 | 323 | 6.0 | 8.0 | 0.00 | 0.12 | 0.12 | 48 | 1012.1 |
| 20260506195559 | 54 | 324 | 11.0 | 14.0 | 0.00 | 0.12 | 0.12 | 49 | 1012.0 |
| 20260506195055 | 54 | 332 | 8.0 | 9.0 | 0.00 | 0.12 | 0.12 | 51 | 1012.1 |
| 20260506194553 | 54 | 326 | 10.0 | 11.0 | 0.00 | 0.12 | 0.12 | 49 | 1011.9 |
| 20260506194049 | 54 | 315 | 6.0 | 10.0 | 0.00 | 0.12 | 0.12 | 51 | 1012.2 |
| 20260506193547 | 54 | 332 | 9.0 | 13.0 | 0.00 | 0.12 | 0.12 | 55 | 1011.9 |
| 20260506193044 | 54 | 308 | 5.0 | 8.0 | 0.00 | 0.12 | 0.12 | 51 | 1012.1 |
| 20260506192541 | 54 | 309 | 11.0 | 13.0 | 0.00 | 0.12 | 0.12 | 52 | 1012.2 |
| 20260506192037 | 54 | 276 | 4.0 | 8.0 | 0.00 | 0.12 | 0.12 | 50 | 1012.1 |
| 20260506191534 | 54 | 320 | 10.0 | 11.0 | 0.00 | 0.12 | 0.12 | 52 | 1012.1 |
| 20260506191029 | 54 | 266 | 5.0 | 7.0 | 0.00 | 0.12 | 0.12 | 50 | 1011.9 |
| 20260506190527 | 54 | 320 | 4.0 | 9.0 | 0.00 | 0.12 | 0.12 | 51 | 1012.1 |
| 20260506190024 | 54 | 326 | 4.0 | 6.0 | 0.00 | 0.12 | 0.12 | 55 | 1012.1 |
| 20260506185521 | 54 | 324 | 9.0 | 9.0 | 0.00 | 0.12 | 0.12 | 51 | 1012.1 |
| 20260506185017 | 53 | 305 | 6.0 | 9.0 | 0.00 | 0.12 | 0.12 | 52 | 1011.9 |
| 20260506184515 | 53 | 299 | 6.0 | 7.0 | 0.00 | 0.12 | 0.12 | 53 | 1012.1 |
| 20260506184012 | 53 | 322 | 6.0 | 9.0 | 0.00 | 0.12 | 0.12 | 53 | 1012.1 |
| 20260506183507 | 53 | 329 | 7.0 | 9.0 | 0.00 | 0.12 | 0.12 | 53 | 1012.3 |
| 20260506183005 | 53 | 307 | 4.0 | 6.0 | 0.00 | 0.12 | 0.12 | 55 | 1012.2 |
| 20260506182501 | 53 | 304 | 7.0 | 8.0 | 0.00 | 0.12 | 0.12 | 53 | 1012.4 |
| 20260506181959 | 53 | 307 | 7.0 | 8.0 | 0.00 | 0.12 | 0.12 | 51 | 1012.0 |
| 20260506181457 | 53 | 319 | 5.0 | 6.0 | 0.00 | 0.12 | 0.12 | 53 | 1012.0 |
| 20260506180953 | 53 | 290 | 4.0 | 7.0 | 0.00 | 0.12 | 0.12 | 53 | 1011.8 |
| 20260506180450 | 53 | 313 | 6.0 | 7.0 | 0.00 | 0.12 | 0.12 | 55 | 1012.1 |
| 20260506175947 | 53 | 303 | 7.0 | 8.0 | 0.00 | 0.12 | 0.12 | 52 | 1012.0 |
| 20260506175443 | 53 | 334 | 6.0 | 10.0 | 0.00 | 0.12 | 0.12 | 53 | 1012.0 |
| 20260506174940 | 53 | 293 | 6.0 | 9.0 | 0.00 | 0.12 | 0.12 | 55 | 1012.0 |
| 20260506174438 | 53 | 316 | 5.0 | 9.0 | 0.00 | 0.12 | 0.12 | 53 | 1011.9 |
| 20260506173934 | 53 | 313 | 9.0 | 11.0 | 0.00 | 0.12 | 0.12 | 49 | 1012.3 |
| 20260506173432 | 54 | 312 | 8.0 | 11.0 | 0.00 | 0.12 | 0.12 | 50 | 1012.1 |
| 20260506172929 | 54 | 301 | 7.0 | 9.0 | 0.00 | 0.12 | 0.12 | 55 | 1012.1 |
| 20260506172426 | 54 | 330 | 6.0 | 7.0 | 0.00 | 0.12 | 0.12 | 55 | 1012.1 |
| 20260506171922 | 54 | 305 | 5.0 | 10.0 | 0.00 | 0.12 | 0.12 | 53 | 1012.0 |
| 20260506171420 | 54 | 316 | 6.0 | 14.0 | 0.00 | 0.12 | 0.12 | 52 | 1011.9 |
| 20260506170918 | 54 | 318 | 6.0 | 9.0 | 0.00 | 0.12 | 0.12 | 54 | 1011.8 |
| 20260506170414 | 54 | 340 | 5.0 | 9.0 | 0.00 | 0.12 | 0.12 | 58 | 1011.9 |
| 20260506165913 | 54 | 321 | 6.0 | 9.0 | 0.00 | 0.12 | 0.12 | 50 | 1011.9 |
| 20260506165411 | 54 | 346 | 4.0 | 7.0 | 0.00 | 0.12 | 0.12 | 54 | 1011.9 |
| 20260506164906 | 54 | 4 | 8.0 | 15.0 | 0.00 | 0.12 | 0.12 | 54 | 1012.2 |
| 20260506164403 | 54 | 353 | 6.0 | 13.0 | 0.00 | 0.12 | 0.12 | 52 | 1012.4 |
| 20260506163902 | 54 | 318 | 7.0 | 9.0 | 0.00 | 0.12 | 0.12 | 52 | 1012.1 |
| 20260506163355 | 54 | 313 | 7.0 | 15.0 | 0.00 | 0.12 | 0.12 | 51 | 1012.3 |
| 20260506162850 | 54 | 336 | 6.0 | 10.0 | 0.00 | 0.12 | 0.12 | 51 | 1012.0 |
| 20260506162349 | 53 | 339 | 9.0 | 10.0 | 0.00 | 0.12 | 0.12 | 55 | 1012.0 |
| 20260506161846 | 53 | 320 | 8.0 | 11.0 | 0.00 | 0.12 | 0.12 | 57 | 1011.7 |
| 20260506161343 | 53 | 345 | 9.0 | 10.0 | 0.00 | 0.12 | 0.12 | 57 | 1011.7 |
| 20260506160841 | 53 | 338 | 5.0 | 11.0 | 0.00 | 0.12 | 0.12 | 56 | 1011.7 |
| 20260506160337 | 54 | 2 | 7.0 | 15.0 | 0.00 | 0.12 | 0.12 | 56 | 1012.3 |
| 20260506155836 | 54 | 321 | 6.0 | 10.0 | 0.00 | 0.12 | 0.12 | 59 | 1011.8 |
| 20260506155332 | 53 | 308 | 4.0 | 8.0 | 0.00 | 0.12 | 0.12 | 64 | 1011.9 |
| 20260506153444 | 53 | 23 | 6.0 | 8.0 | 0.00 | 0.12 | 0.12 | 61 | 1011.9 |
| 20260506152942 | 53 | 306 | 7.0 | 11.0 | 0.00 | 0.12 | 0.12 | 62 | 1011.9 |
| 20260506152439 | 53 | 320 | 5.0 | 8.0 | 0.00 | 0.12 | 0.12 | 62 | 1011.9 |
| 20260506151937 | 53 | 326 | 10.0 | 14.0 | 0.00 | 0.12 | 0.12 | 64 | 1011.6 |
| 20260506151434 | 53 | 18 | 5.0 | 8.0 | 0.00 | 0.12 | 0.12 | 67 | 1011.5 |
| 20260506150932 | 52 | 330 | 9.0 | 13.0 | 0.00 | 0.12 | 0.12 | 66 | 1011.8 |
| 20260506150427 | 52 | 338 | 6.0 | 8.0 | 0.00 | 0.12 | 0.12 | 64 | 1011.4 |
| 20260506145925 | 52 | 332 | 8.0 | 14.0 | 0.00 | 0.12 | 0.12 | 66 | 1011.5 |
| 20260506145421 | 51 | 17 | 2.0 | 7.0 | 0.00 | 0.12 | 0.12 | 64 | 1011.4 |
| 20260506144919 | 51 | 16 | 6.0 | 9.0 | 0.00 | 0.12 | 0.12 | 66 | 1011.3 |
| 20260506144415 | 51 | 25 | 7.0 | 10.0 | 0.00 | 0.12 | 0.12 | 68 | 1011.0 |
| 20260506143914 | 51 | 332 | 7.0 | 8.0 | 0.00 | 0.12 | 0.12 | 69 | 1011.1 |
| 20260506143410 | 50 | 322 | 6.0 | 8.0 | 0.00 | 0.12 | 0.12 | 70 | 1011.3 |
| 20260506142908 | 50 | 331 | 6.0 | 9.0 | 0.00 | 0.12 | 0.12 | 70 | 1011.3 |
| 20260506142406 | 50 | 338 | 6.0 | 11.0 | 0.00 | 0.12 | 0.12 | 72 | 1011.1 |
| 20260506141904 | 50 | 10 | 10.0 | 13.0 | 0.00 | 0.12 | 0.12 | 71 | 1011.2 |
| 20260506141402 | 49 | 327 | 7.0 | 13.0 | 0.00 | 0.12 | 0.12 | 73 | 1011.1 |
| 20260506140900 | 50 | 335 | 9.0 | 10.0 | 0.00 | 0.12 | 0.12 | 73 | 1011.2 |
| 20260506140356 | 49 | 303 | 6.0 | 8.0 | 0.00 | 0.12 | 0.12 | 78 | 1011.3 |
| 20260506135853 | 49 | 318 | 9.0 | 10.0 | 0.00 | 0.12 | 0.12 | 74 | 1011.4 |
| 20260506135350 | 49 | 306 | 7.0 | 13.0 | 0.00 | 0.12 | 0.12 | 75 | 1011.1 |
| 20260506134846 | 49 | 333 | 9.0 | 10.0 | 0.00 | 0.12 | 0.12 | 76 | 1010.8 |
| 20260506134343 | 48 | 315 | 6.0 | 8.0 | 0.00 | 0.12 | 0.12 | 80 | 1010.8 |
| 20260506133840 | 48 | 324 | 9.0 | 13.0 | 0.00 | 0.12 | 0.12 | 80 | 1010.7 |
| 20260506133336 | 48 | 321 | 7.0 | 11.0 | 0.00 | 0.12 | 0.12 | 80 | 1010.8 |
| 20260506132833 | 47 | 305 | 6.0 | 10.0 | 0.00 | 0.12 | 0.12 | 81 | 1010.6 |
| 20260506132330 | 47 | 321 | 7.0 | 8.0 | 0.00 | 0.12 | 0.12 | 80 | 1010.8 |
| 20260506131828 | 47 | 321 | 6.0 | 9.0 | 0.00 | 0.12 | 0.12 | 82 | 1010.7 |
| 20260506131324 | 47 | 319 | 6.0 | 8.0 | 0.00 | 0.12 | 0.12 | 82 | 1010.6 |
| 20260506130822 | 47 | 298 | 8.0 | 9.0 | 0.00 | 0.12 | 0.12 | 81 | 1010.9 |
| 20260506130318 | 47 | 311 | 6.0 | 8.0 | 0.00 | 0.12 | 0.12 | 81 | 1010.7 |
| 20260506125816 | 46 | 318 | 4.0 | 8.0 | 0.00 | 0.12 | 0.12 | 84 | 1010.8 |
| 20260506125314 | 46 | 302 | 6.0 | 9.0 | 0.00 | 0.12 | 0.12 | 82 | 1010.6 |
| 20260506124813 | 46 | 316 | 9.0 | 10.0 | 0.00 | 0.12 | 0.12 | 82 | 1010.7 |
| 20260506124309 | 46 | 323 | 4.0 | 6.0 | 0.00 | 0.12 | 0.12 | 87 | 1010.6 |
| 20260506123807 | 45 | 333 | 6.0 | 8.0 | 0.00 | 0.12 | 0.12 | 87 | 1010.4 |
| 20260506123305 | 45 | 313 | 5.0 | 6.0 | 0.00 | 0.12 | 0.12 | 88 | 1010.3 |
| 20260506122801 | 45 | 289 | 5.0 | 6.0 | 0.00 | 0.12 | 0.12 | 90 | 1010.5 |
| 20260506122259 | 45 | 320 | 6.0 | 8.0 | 0.00 | 0.12 | 0.12 | 90 | 1010.2 |
| 20260506121757 | 45 | 318 | 6.0 | 7.0 | 0.00 | 0.12 | 0.12 | 90 | 1010.0 |
| 20260506121253 | 45 | 325 | 5.0 | 6.0 | 0.00 | 0.12 | 0.12 | 91 | 1010.0 |
| 20260506120751 | 44 | 334 | 4.0 | 6.0 | 0.00 | 0.12 | 0.12 | 91 | 1010.0 |
| 20260506120248 | 44 | 322 | 4.0 | 6.0 | 0.00 | 0.12 | 0.12 | 91 | 1009.8 |
| 20260506115746 | 44 | 330 | 5.0 | 8.0 | 0.00 | 0.12 | 0.12 | 91 | 1009.8 |
| 20260506115244 | 44 | 307 | 5.0 | 7.0 | 0.00 | 0.12 | 0.12 | 92 | 1010.1 |
| 20260506114741 | 44 | 323 | 4.0 | 4.0 | 0.00 | 0.12 | 0.12 | 93 | 1009.8 |
| 20260506114239 | 44 | 336 | 5.0 | 6.0 | 0.00 | 0.12 | 0.12 | 93 | 1009.7 |
| 20260506113737 | 43 | 336 | 5.0 | 6.0 | 0.00 | 0.12 | 0.12 | 93 | 1009.5 |
| 20260506113234 | 43 | 341 | 5.0 | 6.0 | 0.00 | 0.12 | 0.12 | 93 | 1009.2 |
| 20260506112730 | 43 | 338 | 4.0 | 6.0 | 0.00 | 0.12 | 0.12 | 94 | 1009.2 |
| 20260506112228 | 43 | 338 | 2.0 | 4.0 | 0.00 | 0.12 | 0.12 | 94 | 1009.3 |
| 20260506111725 | 43 | 340 | 3.0 | 4.0 | 0.00 | 0.12 | 0.12 | 94 | 1009.1 |
| 20260506111224 | 43 | 331 | 4.0 | 4.0 | 0.00 | 0.12 | 0.12 | 94 | 1008.9 |
| 20260506110721 | 43 | 335 | 4.0 | 6.0 | 0.00 | 0.12 | 0.12 | 94 | 1008.9 |
| 20260506110218 | 43 | 333 | 5.0 | 6.0 | 0.00 | 0.12 | 0.12 | 94 | 1008.9 |
| 20260506105714 | 43 | 334 | 4.0 | 4.0 | 0.00 | 0.12 | 0.12 | 95 | 1008.9 |
| 20260506105211 | 43 | 330 | 2.0 | 3.0 | 0.00 | 0.12 | 0.12 | 95 | 1008.7 |
| 20260506104710 | 43 | 343 | 4.0 | 4.0 | 0.00 | 0.12 | 0.12 | 95 | 1008.7 |
| 20260506104207 | 43 | 8 | 2.0 | 4.0 | 0.00 | 0.12 | 0.12 | 95 | 1008.6 |
| 20260506103703 | 43 | 350 | 2.0 | 3.0 | 0.00 | 0.12 | 0.12 | 95 | 1008.2 |
| 20260506103200 | 43 | 339 | 2.0 | 3.0 | 0.00 | 0.12 | 0.12 | 95 | 1008.8 |
| 20260506102659 | 43 | 2 | 1.0 | 2.0 | 0.00 | 0.12 | 0.12 | 95 | 1008.5 |
| 20260506102156 | 43 | 323 | 1.0 | 2.0 | 0.00 | 0.12 | 0.12 | 95 | 1008.7 |
| 20260506101652 | 43 | 327 | 2.0 | 2.0 | 0.00 | 0.12 | 0.12 | 95 | 1008.6 |
| 20260506101149 | 43 | 341 | 2.0 | 3.0 | 0.00 | 0.12 | 0.12 | 95 | 1008.3 |
| 20260506100648 | 43 | 340 | 3.0 | 3.0 | 0.00 | 0.12 | 0.12 | 95 | 1008.5 |
| 20260506100145 | 43 | 353 | 2.0 | 4.0 | 0.00 | 0.12 | 0.12 | 95 | 1008.2 |
| 20260506095644 | 43 | 333 | 4.0 | 4.0 | 0.00 | 0.12 | 0.12 | 95 | 1008.5 |
| 20260506095140 | 43 | 334 | 4.0 | 4.0 | 0.00 | 0.12 | 0.12 | 95 | 1008.6 |
| 20260506094638 | 43 | 329 | 3.0 | 3.0 | 0.00 | 0.12 | 0.12 | 95 | 1008.3 |
| 20260506094135 | 43 | 354 | 2.0 | 3.0 | 0.00 | 0.12 | 0.12 | 95 | 1008.2 |
| 20260506093634 | 43 | 346 | 3.0 | 4.0 | 0.00 | 0.12 | 0.12 | 95 | 1008.0 |
| 20260506093130 | 43 | 22 | 2.0 | 4.0 | 0.00 | 0.12 | 0.12 | 95 | 1008.0 |
| 20260506092628 | 43 | 355 | 5.0 | 7.0 | 0.00 | 0.12 | 0.12 | 95 | 1007.9 |
| 20260506092125 | 43 | 342 | 2.0 | 7.0 | 0.00 | 0.12 | 0.12 | 95 | 1008.0 |
| 20260506091623 | 43 | 343 | 5.0 | 6.0 | 0.00 | 0.12 | 0.12 | 96 | 1008.0 |
| 20260506091120 | 43 | 32 | 4.0 | 6.0 | 0.00 | 0.12 | 0.12 | 96 | 1007.8 |
| 20260506090619 | 43 | 1 | 2.0 | 4.0 | 0.00 | 0.12 | 0.12 | 96 | 1008.1 |
| 20260506090114 | 43 | 353 | 4.0 | 4.0 | 0.00 | 0.12 | 0.12 | 96 | 1008.0 |
| 20260506085611 | 43 | 351 | 5.0 | 7.0 | 0.00 | 0.12 | 0.12 | 96 | 1007.8 |
| 20260506085108 | 43 | 351 | 5.0 | 6.0 | 0.00 | 0.12 | 0.12 | 96 | 1008.1 |
| 20260506084604 | 43 | 338 | 5.0 | 6.0 | 0.00 | 0.12 | 0.12 | 96 | 1008.4 |
| 20260506084101 | 43 | 326 | 3.0 | 4.0 | 0.00 | 0.12 | 0.12 | 95 | 1007.9 |
| 20260506083558 | 43 | 23 | 4.0 | 4.0 | 0.00 | 0.12 | 0.12 | 96 | 1007.6 |
| 20260506083055 | 43 | 13 | 4.0 | 4.0 | 0.00 | 0.12 | 0.12 | 96 | 1007.4 |
| 20260506082552 | 43 | 41 | 4.0 | 4.0 | 0.00 | 0.12 | 0.12 | 95 | 1007.3 |
| 20260506082048 | 43 | 51 | 1.0 | 3.0 | 0.05 | 0.12 | 0.12 | 95 | 1007.4 |
| 20260506081546 | 43 | 19 | 4.0 | 4.0 | 0.00 | 0.11 | 0.11 | 95 | 1007.5 |
| 20260506081043 | 43 | 358 | 2.0 | 4.0 | 0.00 | 0.11 | 0.11 | 95 | 1008.0 |
| 20260506080541 | 43 | 341 | 2.0 | 6.0 | 0.00 | 0.11 | 0.11 | 95 | 1008.3 |
| 20260506073524 | 43 | 19 | 3.0 | 3.0 | 0.00 | 0.10 | 0.10 | 95 | 1007.5 |
| 20260506073021 | 43 | 17 | 3.0 | 3.0 | 0.00 | 0.10 | 0.10 | 95 | 1007.7 |
| 20260506072518 | 43 | 56 | 0.0 | 4.0 | 0.00 | 0.10 | 0.10 | 95 | 1007.5 |
| 20260506072016 | 43 | 64 | 2.0 | 3.0 | 0.00 | 0.10 | 0.10 | 95 | 1007.4 |
| 20260506071514 | 43 | 32 | 2.0 | 3.0 | 0.00 | 0.10 | 0.10 | 95 | 1007.1 |
| 20260506071011 | 43 | 51 | 2.0 | 3.0 | 0.00 | 0.10 | 0.10 | 94 | 1007.0 |
| 20260506070508 | 43 | 52 | 4.0 | 7.0 | 0.00 | 0.10 | 0.10 | 94 | 1007.2 |
| 20260506062445 | 43 | 347 | 4.0 | 4.0 | 0.07 | 0.08 | 0.08 | 93 | 1008.1 |
| 20260506061941 | 43 | 29 | 5.0 | 6.0 | 0.00 | 0.07 | 0.07 | 93 | 1008.1 |
| 20260506061438 | 43 | 359 | 4.0 | 7.0 | 0.00 | 0.07 | 0.07 | 92 | 1007.8 |
| 20260506060936 | 44 | 1 | 5.0 | 6.0 | 0.05 | 0.07 | 0.07 | 92 | 1008.1 |
| 20260506060434 | 44 | 5 | 6.0 | 8.0 | 0.00 | 0.06 | 0.06 | 91 | 1008.0 |
| 20260506051406 | 44 | 20 | 7.0 | 8.0 | 0.07 | 0.06 | 0.06 | 95 | 1007.3 |
| 20260506050903 | 44 | 15 | 4.0 | 7.0 | 0.07 | 0.06 | 0.06 | 96 | 1007.5 |
| 20260506050400 | 44 | 79 | 6.0 | 11.0 | 0.05 | 0.05 | 0.05 | 96 | 1007.5 |
| 20260506044851 | 45 | 15 | 8.0 | 9.0 | 0.12 | 0.03 | 0.03 | 96 | 1007.8 |
| 20260506044349 | 45 | 37 | 6.0 | 9.0 | 0.00 | 0.01 | 0.01 | 96 | 1008.2 |
| 20260506043845 | 45 | 18 | 4.0 | 6.0 | 0.00 | 0.01 | 0.01 | 96 | 1008.1 |
| 20260506043342 | 45 | 359 | 4.0 | 7.0 | 0.00 | 0.01 | 0.01 | 96 | 1008.1 |
| 20260506042841 | 45 | 24 | 4.0 | 8.0 | 0.00 | 0.01 | 0.01 | 96 | 1008.0 |
| 20260506042340 | 45 | 359 | 6.0 | 8.0 | 0.00 | 0.01 | 0.01 | 96 | 1008.1 |
| 20260506041838 | 45 | 326 | 4.0 | 8.0 | 0.00 | 0.01 | 0.01 | 96 | 1007.9 |
| 20260506041335 | 45 | 9 | 6.0 | 8.0 | 0.00 | 0.01 | 0.01 | 96 | 1007.7 |
| 20260506040832 | 45 | 8 | 4.0 | 8.0 | 0.05 | 0.01 | 0.01 | 96 | 1007.8 |
| 20260506040329 | 45 | 21 | 5.0 | 7.0 | 0.17 | 0.01 | 0.01 | 96 | 1007.4 |
| 20260506035825 | 45 | 10 | 5.0 | 10.0 | 0.19 | 1.02 | 1.02 | 96 | 1007.5 |
| 20260506035323 | 45 | 18 | 7.0 | 9.0 | 0.19 | 1.00 | 1.00 | 96 | 1007.8 |
| 20260506034820 | 46 | 20 | 8.0 | 13.0 | 0.19 | 0.99 | 0.99 | 96 | 1007.6 |
| 20260506034317 | 46 | 357 | 9.0 | 13.0 | 0.12 | 0.97 | 0.97 | 97 | 1008.0 |
| 20260506033814 | 46 | 348 | 6.0 | 8.0 | 0.05 | 0.96 | 0.96 | 97 | 1007.7 |
| 20260506033311 | 46 | 34 | 8.0 | 10.0 | 0.07 | 0.95 | 0.95 | 97 | 1007.8 |
| 20260506032808 | 46 | 82 | 5.0 | 11.0 | 0.07 | 0.95 | 0.95 | 97 | 1007.8 |
| 20260506032306 | 47 | 359 | 5.0 | 8.0 | 0.00 | 0.94 | 0.94 | 97 | 1007.8 |
| 20260506031801 | 47 | 7 | 4.0 | 7.0 | 0.05 | 0.94 | 0.94 | 97 | 1007.9 |
| 20260506031258 | 47 | 25 | 5.0 | 7.0 | 0.07 | 0.93 | 0.93 | 97 | 1007.7 |
| 20260506030756 | 47 | 36 | 6.0 | 8.0 | 0.12 | 0.93 | 0.93 | 97 | 1007.7 |
| 20260506030254 | 47 | 345 | 5.0 | 6.0 | 0.05 | 0.92 | 0.92 | 97 | 1007.8 |
| 20260506025751 | 47 | 38 | 4.0 | 6.0 | 0.07 | 0.91 | 0.91 | 97 | 1007.8 |
| 20260506025247 | 46 | 28 | 3.0 | 7.0 | 0.07 | 0.91 | 0.91 | 97 | 1007.9 |
| 20260506024744 | 46 | 333 | 3.0 | 3.0 | 0.00 | 0.90 | 0.90 | 97 | 1008.1 |
| 20260506024241 | 46 | 21 | 4.0 | 6.0 | 0.00 | 0.90 | 0.90 | 97 | 1007.7 |
| 20260506023737 | 47 | 25 | 4.0 | 7.0 | 0.05 | 0.90 | 0.90 | 97 | 1007.8 |
| 20260506023234 | 46 | 35 | 5.0 | 6.0 | 0.00 | 0.89 | 0.89 | 97 | 1007.5 |
| 20260506022731 | 46 | 54 | 3.0 | 3.0 | 0.00 | 0.89 | 0.89 | 97 | 1007.9 |
| 20260506022229 | 46 | 55 | 1.0 | 2.0 | 0.07 | 0.89 | 0.89 | 97 | 1007.8 |
| 20260506021726 | 46 | 69 | 3.0 | 3.0 | 0.05 | 0.88 | 0.88 | 97 | 1007.7 |
| 20260506021223 | 46 | 49 | 4.0 | 4.0 | 0.12 | 0.88 | 0.88 | 97 | 1007.6 |
| 20260506020720 | 46 | 59 | 3.0 | 3.0 | 0.14 | 0.87 | 0.87 | 97 | 1008.0 |
| 20260506020218 | 46 | 61 | 1.0 | 2.0 | 0.12 | 0.86 | 0.86 | 97 | 1008.0 |
| 20260506015715 | 46 | 47 | 2.0 | 4.0 | 0.12 | 0.85 | 0.85 | 97 | 1008.0 |
| 20260506015213 | 46 | 51 | 3.0 | 4.0 | 0.07 | 0.84 | 0.84 | 97 | 1007.9 |
| 20260506014710 | 46 | 23 | 4.0 | 4.0 | 0.05 | 0.83 | 0.83 | 97 | 1008.0 |
| 20260506014205 | 46 | 57 | 0.0 | 3.0 | 0.07 | 0.82 | 0.82 | 97 | 1008.0 |
| 20260506013703 | 46 | 43 | 0.0 | 1.0 | 0.07 | 0.82 | 0.82 | 97 | 1007.8 |
| 20260506013200 | 46 | 50 | 0.0 | 1.0 | 0.05 | 0.81 | 0.81 | 97 | 1007.7 |
| 20260506012656 | 46 | 72 | 0.0 | 3.0 | 0.12 | 0.81 | 0.81 | 97 | 1007.6 |
| 20260506012153 | 46 | 20 | 4.0 | 8.0 | 0.19 | 0.80 | 0.80 | 97 | 1007.5 |
| 20260506011651 | 46 | 24 | 3.0 | 6.0 | 0.12 | 0.78 | 0.78 | 97 | 1007.5 |
| 20260506011147 | 46 | 52 | 5.0 | 8.0 | 0.17 | 0.77 | 0.77 | 97 | 1007.4 |
| 20260506010646 | 46 | 21 | 5.0 | 8.0 | 0.24 | 0.75 | 0.75 | 97 | 1007.7 |
| 20260506010142 | 46 | 351 | 5.0 | 7.0 | 0.19 | 0.73 | 0.73 | 97 | 1007.8 |
| 20260506005639 | 46 | 336 | 3.0 | 7.0 | 0.19 | 0.71 | 0.71 | 97 | 1007.5 |
| 20260506005136 | 46 | 342 | 4.0 | 7.0 | 0.17 | 0.70 | 0.70 | 97 | 1007.7 |
| 20260506004632 | 47 | 347 | 7.0 | 8.0 | 0.17 | 0.68 | 0.68 | 97 | 1007.5 |
| 20260506004130 | 47 | 6 | 5.0 | 7.0 | 0.19 | 0.67 | 0.67 | 97 | 1007.6 |
| 20260506003626 | 47 | 349 | 5.0 | 6.0 | 0.12 | 0.65 | 0.65 | 97 | 1007.3 |
| 20260506003122 | 47 | 1 | 4.0 | 8.0 | 0.05 | 0.64 | 0.64 | 97 | 1007.4 |
| 20260506002618 | 47 | 327 | 6.0 | 8.0 | 0.07 | 0.63 | 0.63 | 97 | 1007.4 |
| 20260506002114 | 47 | 21 | 4.0 | 8.0 | 0.07 | 0.63 | 0.63 | 97 | 1007.3 |
| 20260506001610 | 47 | 348 | 6.0 | 9.0 | 0.00 | 0.62 | 0.62 | 97 | 1007.1 |
| 20260506001108 | 47 | 10 | 4.0 | 8.0 | 0.07 | 0.62 | 0.62 | 97 | 1007.1 |
| 20260506000605 | 47 | 14 | 8.0 | 10.0 | 0.07 | 0.62 | 0.62 | 97 | 1007.2 |
| 20260505235600 | 47 | 333 | 6.0 | 9.0 | 0.05 | 0.61 | 0.61 | 97 | 1007.1 |
| 20260505235057 | 47 | 13 | 8.0 | 10.0 | 0.00 | 0.60 | 0.60 | 97 | 1007.2 |
| 20260505234554 | 48 | 10 | 5.0 | 11.0 | 0.00 | 0.60 | 0.60 | 97 | 1006.9 |
| 20260505234050 | 48 | 12 | 5.0 | 11.0 | 0.07 | 0.60 | 0.60 | 97 | 1007.5 |
| 20260505233548 | 48 | 31 | 6.0 | 8.0 | 0.07 | 0.60 | 0.60 | 97 | 1007.0 |
| 20260505233045 | 48 | 5 | 6.0 | 10.0 | 0.05 | 0.59 | 0.59 | 97 | 1007.0 |
| 20260505232543 | 48 | 337 | 9.0 | 10.0 | 0.05 | 0.59 | 0.59 | 97 | 1007.4 |
| 20260505232041 | 48 | 315 | 9.0 | 16.0 | 0.00 | 0.58 | 0.58 | 97 | 1007.3 |
| 20260505231537 | 49 | 1 | 6.0 | 9.0 | 0.07 | 0.58 | 0.58 | 97 | 1007.4 |
| 20260505231036 | 49 | 335 | 8.0 | 10.0 | 0.07 | 0.58 | 0.58 | 97 | 1007.3 |
| 20260505230533 | 49 | 4 | 7.0 | 10.0 | 0.05 | 0.57 | 0.57 | 97 | 1007.2 |
| 20260505230029 | 49 | 358 | 9.0 | 11.0 | 0.05 | 0.57 | 0.57 | 97 | 1007.1 |
| 20260505225526 | 49 | 333 | 5.0 | 11.0 | 0.00 | 0.56 | 0.56 | 97 | 1007.1 |
| 20260505225022 | 49 | 353 | 6.0 | 8.0 | 0.07 | 0.56 | 0.56 | 97 | 1007.4 |
| 20260505224519 | 49 | 5 | 7.0 | 9.0 | 0.07 | 0.56 | 0.56 | 97 | 1007.3 |
| 20260505224017 | 49 | 1 | 7.0 | 9.0 | 0.00 | 0.55 | 0.55 | 97 | 1007.3 |
| 20260505223514 | 49 | 17 | 8.0 | 9.0 | 0.05 | 0.55 | 0.55 | 97 | 1007.1 |
| 20260505223010 | 49 | 6 | 5.0 | 11.0 | 0.05 | 0.55 | 0.55 | 97 | 1007.0 |
| 20260505222506 | 49 | 349 | 7.0 | 10.0 | 0.00 | 0.54 | 0.54 | 97 | 1007.2 |